This demonstration page uses our WeatherBlox Daily Observations layout. Learn more.

Left ArrowRight Arrow

39.51506, -84.39828

Hourly Observations for June 28, 2022

Temp ( °F °C ) Dew Point ( °F °C ) Humidity (%) Winds ( mph kmh ) Pressure ( in mb ) Visibility ( mi km ) Precip ( " mm )
12:15 am 00:15 Clear 62 16.7 41 5.2 47 47 NNW 6 9 30.23 1024 10 16 0.00 0.00
12:35 am 00:35 Clear 61 16.2 42 5.3 49 49 NNW 7 11 30.23 1024 10 16 0.00 0.00
12:55 am 00:55 Clear 60 15.8 42 5.4 50 50 NNW 7 11 30.24 1024 10 16 0.00 0.00
1:15 am 01:15 Clear 60 15.3 42 5.4 52 52 NNW 7 11 30.24 1024 10 16 0.00 0.00
1:35 am 01:35 Clear 58 14.2 43 6.2 59 59 NNE 7 11 30.24 1024 10 16 0.00 0.00
1:55 am 01:55 Clear 59 15 42 5.6 54 54 NNE 7 11 30.25 1024 10 16 0.00 0.00
2:15 am 02:15 Clear 58 14.7 42 5.7 55 55 N 6 9 30.25 1024 10 16 0.00 0.00
2:35 am 02:35 Clear 56 13.6 45 7.1 65 65 N 5 7 30.25 1024 10 16 0.00 0.00
2:55 am 02:55 Clear 54 12.1 44 6.7 70 70 N 6 9 30.24 1024 10 16 0.00 0.00
3:15 am 03:15 Clear 53 11.5 44 6.9 74 74 N 5 7 30.26 1025 10 16 0.00 0.00
3:35 am 03:35 Clear 51 10.4 45 7.4 82 82 N 5 7 30.26 1025 10 16 0.00 0.00
3:55 am 03:55 Clear 51 10.5 47 8.4 87 87 N 5 7 30.26 1025 10 16 0.00 0.00
4:15 am 04:15 Clear 52 11 46 7.7 80 80 N 5 7 30.26 1025 10 16 0.00 0.00
4:35 am 04:35 Clear 46 7.9 45 7 94 94 NNW 3 6 30.26 1025 10 16 0.00 0.00
4:55 am 04:55 Clear 47 8.6 47 8.1 97 97 Calm 30.26 1025 10 16 0.00 0.00
5:15 am 05:15 Clear 48 9.1 47 8.6 97 97 Calm 30.26 1025 10 16 0.00 0.00
5:35 am 05:35 Clear 46 8 45 7.2 95 95 N 3 6 30.26 1025 10 16 0.00 0.00
5:55 am 05:55 Clear 48 8.7 47 8.3 97 97 Calm 30.27 1025 10 16 0.00 0.00
6:15 am 06:15 Sunny 47 8.3 47 8.1 99 99 N 3 6 30.27 1025 10 16 0.00 0.00
6:35 am 06:35 Sunny 46 8 46 7.8 99 99 NNW 5 7 30.27 1025 10 16 0.00 0.00
6:55 am 06:55 Sunny 47 8.6 47 8.2 97 97 Calm 30.27 1025 10 16 0.00 0.00
7:15 am 07:15 Sunny 50 10.1 49 9.3 95 95 Calm 30.28 1025 10 16 0.00 0.00
7:35 am 07:35 Sunny 53 11.7 51 10.4 92 92 Calm 30.27 1025 10 16 0.00 0.00
7:55 am 07:55 Sunny 55 12.8 51 10.7 87 87 Calm 30.27 1025 10 16 0.00 0.00
8:15 am 08:15 Sunny 57 13.9 50 9.9 77 77 Calm 30.27 1025 10 16 0.00 0.00
8:35 am 08:35 Sunny 58 14.7 51 10.5 76 76 Calm 30.28 1025 10 16 0.00 0.00
8:55 am 08:55 Sunny 62 16.6 48 8.9 61 61 N 3 6 30.27 1025 10 16 0.00 0.00
9:15 am 09:15 Sunny 64 17.5 47 8.3 55 55 N 3 6 30.27 1025 10 16 0.00 0.00
9:35 am 09:35 Sunny 65 18.2 46 7.7 51 51 Calm 30.27 1025 10 16 0.00 0.00
9:55 am 09:55 Sunny 66 18.8 46 7.8 49 49 N 3 6 30.27 1025 10 16 0.00 0.00
10:15 am 10:15 Sunny 68 20 46 7.5 45 45 NNE 3 6 30.27 1025 10 16 0.00 0.00
10:35 am 10:35 Sunny 68 20 42 5.3 38 38 ENE 5 7 30.27 1025 10 16 0.00 0.00
10:55 am 10:55 Sunny 69 20.8 42 5.7 37 37 E 3 6 30.27 1025 10 16 0.00 0.00
11:15 am 11:15 Sunny 70 20.9 40 4.7 35 35 NNW 5 7 30.27 1025 10 16 0.00 0.00
11:35 am 11:35 Sunny 71 21.7 44 6.7 38 38 Calm 30.27 1025 10 16 0.00 0.00
11:55 am 11:55 Sunny 71 21.8 43 5.9 36 36 Calm 30.27 1025 10 16 0.00 0.00
12:15 pm 12:15 Sunny 72 22.4 40 4.5 31 31 ENE 3 6 30.26 1025 10 16 0.00 0.00
12:35 pm 12:35 Sunny 73 22.9 43 5.9 33 33 NNE 5 7 30.26 1025 10 16 0.00 0.00
12:55 pm 12:55 Sunny 73 22.5 40 4.4 31 31 NNW 3 6 30.25 1024 10 16 0.00 0.00
1:15 pm 13:15 Sunny 74 23.6 43 6 32 32 W 6 9 30.25 1024 10 16 0.00 0.00
1:35 pm 13:35 Sunny 75 24 41 4.9 29 29 NNW 3 6 30.25 1024 10 16 0.00 0.00
1:55 pm 13:55 Sunny 75 24.1 40 4.3 28 28 SW 5 7 30.23 1024 10 16 0.00 0.00
2:15 pm 14:15 Sunny 76 24.3 40 4.6 28 28 Calm 30.23 1024 10 16 0.00 0.00
2:35 pm 14:35 Sunny 77 24.8 38 3.6 25 25 NNE 5 7 30.23 1024 10 16 0.00 0.00
2:55 pm 14:55 Sunny 77 24.8 38 3.5 25 25 NNE 3 6 30.22 1023 10 16 0.00 0.00
3:15 pm 15:15 Sunny 78 25.8 38 3.3 23 23 E 6 9 30.22 1023 10 16 0.00 0.00
3:35 pm 15:35 Sunny 77 24.8 42 5.5 29 29 WSW 5 7 30.21 1023 10 16 0.00 0.00
3:55 pm 15:55 Sunny 77 25.1 42 5.5 28 28 WNW 5 7 30.21 1023 10 16 0.00 0.00
4:15 pm 16:15 Sunny 79 25.9 42 5.6 27 27 WNW 5 7 30.20 1023 10 16 0.00 0.00
4:35 pm 16:35 Sunny 79 25.9 40 4.6 25 25 SW 5 7 30.20 1023 10 16 0.00 0.00
4:55 pm 16:55 Sunny 79 26.1 42 5.5 27 27 WNW 7 11 30.19 1022 10 16 0.00 0.00
5:15 pm 17:15 Sunny 79 25.9 41 5 26 26 NNE 3 6 30.19 1022 10 16 0.00 0.00
5:35 pm 17:35 Sunny 79 26 40 4.6 25 25 Calm 30.18 1022 10 16 0.00 0.00
5:55 pm 17:55 Sunny 79 25.9 40 4.4 25 25 WNW 3 6 30.18 1022 10 16 0.00 0.00
6:15 pm 18:15 Sunny 78 25.4 40 4.3 26 26 Calm 30.17 1022 10 16 0.00 0.00
6:35 pm 18:35 Sunny 78 25.8 42 5.3 27 27 NW 3 6 30.17 1022 10 16 0.00 0.00
6:55 pm 18:55 Sunny 78 25.7 42 5.5 27 27 WSW 6 9 30.17 1022 10 16 0.00 0.00
7:15 pm 19:15 Sunny 78 25.4 42 5.3 27 27 Calm 30.16 1021 10 16 0.00 0.00
7:35 pm 19:35 Sunny 78 25.4 41 5.2 27 27 Calm 30.16 1021 10 16 0.00 0.00
7:55 pm 19:55 Sunny 77 25 44 6.9 31 31 Calm 30.16 1021 10 16 0.00 0.00
8:15 pm 20:15 Sunny 75 23.7 55 13 51 51 Calm 30.17 1022 10 16 0.00 0.00
8:35 pm 20:35 Sunny 71 21.6 52 11.3 52 52 Calm 30.17 1022 10 16 0.00 0.00
8:55 pm 20:55 Sunny 66 19.1 54 12.4 65 65 W 3 6 30.18 1022 10 16 0.00 0.00
9:15 pm 21:15 Clear 64 18 54 12.3 69 69 Calm 30.18 1022 10 16 0.00 0.00
9:35 pm 21:35 Clear 63 17.3 56 13.1 77 77 Calm 30.18 1022 10 16 0.00 0.00
9:55 pm 21:55 Clear 60 15.6 54 12.3 81 81 Calm 30.19 1022 10 16 0.00 0.00
10:15 pm 22:15 Clear 58 14.3 54 12.4 88 88 Calm 30.20 1023 10 16 0.00 0.00
10:35 pm 22:35 Clear 59 14.8 54 12 83 83 Calm 30.20 1023 10 16 0.00 0.00
10:55 pm 22:55 Clear 59 15 53 11.4 79 79 Calm 30.21 1023 10 16 0.00 0.00
11:15 pm 23:15 Clear 55 12.8 52 10.9 88 88 Calm 30.22 1023 10 16 0.00 0.00
11:35 pm 23:35 Clear 55 12.6 52 10.9 89 89 Calm 30.22 1023 10 16 0.00 0.00
11:55 pm 23:55 Clear 55 12.7 52 10.9 89 89 Calm 30.22 1023 10 16 0.00 0.00

Powered by AerisWeather